Retour au catalogue

YAOGAN-43 O1E

ActifMilitaireVLEO
NORAD 60462·PAYLOAD·🇨🇳 China

Lancé Aug 16, 2024 depuis Xichang Satellite Launch Center

Loading…

Prochains Passages (prochaines 24 heures)

TLE

FraisSource: Space-Track

Époque: Sep 14, 2026, 15:02 UTC

1 60462U 24148E   26257.62651470  .00008077  00000-0  33661-3 0  9994
2 60462  34.9940 317.6570 0003250 312.2774  47.7665 15.22982492115808

Suivez YAOGAN-43 O1E en temps réel avec AllMySat

Download on the App Store